GFSNGP_2pvu_pres_294.txt.gz
Presure
239 237 246 248 248 243 245 243 237 219 221 219 228 231 255 263 257 262 258 250 249 244 242 237 231 241 245 236 239 214 214 218 215 228 226 239 245 273 283 263 279 299 328 344
265 253 252 263 253 243 239 238 239 239 224 221 240 231 285 276 279 277 255 253 257 251 250 250 248 239 235 216 212 209 216 218 227 226 239 247 276 282 259 278 295 282 381 378
275 258 263 264 254 250 232 233 244 253 259 231 286 290 275 280 270 272 251 222 224 219 221 212 213 213 216 213 209 217 222 228 227 240 265 277 280 257 278 293 291 314 382 361
303 294 303 302 294 301 303 296 293 290 288 288 275 247 238 234 216 222 213 215 218 214 213 212 209 214 215 216 221 222 228 230 239 273 277 278 258 278 302 294 356 391 365 343
277 280 283 272 261 264 230 234 229 225 225 225 224 222 219 216 219 223 224 221 218 216 215 215 220 217 220 223 227 227 237 251 278 278 256 271 278 315 289 352 397 368 347 334
229 232 235 233 233 237 239 250 262 280 293 293 277 255 251 243 235 227 228 227 226 226 226 226 224 227 227 228 234 243 281 279 268 254 281 275 291 333 340 397 376 354 335 326
259 284 293 331 351 352 378 392 386 371 363 362 365 353 336 333 335 330 298 309 285 294 284 251 232 235 242 256 271 283 274 252 274 271 287 305 284 424 397 383 101 186 329 323
358 374 382 375 371 360 371 382 382 369 354 349 358 345 330 319 312 308 300 288 283 275 271 273 277 271 270 278 277 253 270 269 274 286 327 323 425 403 383 363 144 105 321 319
373 365 371 364 362 348 361 378 370 364 358 354 336 312 304 294 288 285 276 271 272 274 271 265 264 275 274 249 265 274 261 276 288 331 318 428 403 385 370 349 330 321 319 314
366 364 354 344 360 361 359 358 348 349 346 325 303 291 286 279 272 270 268 261 262 258 261 273 265 249 264 278 258 275 294 341 322 435 432 408 384 369 357 337 323 314 312 315
368 349 353 355 374 377 362 359 346 332 307 277 285 277 271 266 261 259 257 259 260 264 249 256 266 267 252 272 294 337 329 310 449 435 416 395 368 352 338 327 319 310 313 313
336 343 356 365 370 358 339 323 310 288 284 273 268 258 260 254 251 257 260 247 251 252 267 266 246 275 311 308 326 326 315 443 437 420 402 379 362 345 334 322 316 307 308 309
347 356 368 340 325 321 308 285 277 271 253 262 256 251 257 259 253 244 245 257 265 282 252 279 314 310 324 324 302 447 435 425 429 406 388 369 350 341 326 316 313 310 317 309
363 337 327 303 285 275 269 265 257 258 252 255 257 251 246 250 245 257 263 277 263 275 280 318 320 326 308 365 447 434 414 396 386 402 380 362 345 337 328 317 310 308 300 300
317 293 281 277 261 261 262 259 257 255 249 243 242 241 248 258 254 257 265 264 271 302 311 328 312 309 421 411 409 412 386 369 365 394 376 208 115 336 324 320 315 310 313 307
279 271 264 261 261 259 251 247 247 244 237 244 248 258 261 248 259 259 270 277 299 327 319 301 417 413 407 399 387 378 362 361 365 382 374 357 344 182 170 321 318 318 313 313
258 259 255 250 247 247 243 235 237 246 255 254 268 238 255 257 261 262 278 284 306 314 297 437 418 404 396 386 377 364 358 366 365 374 370 355 345 138 125 122 319 320 315 310
252 249 248 246 237 235 240 246 251 262 257 239 246 261 253 263 261 277 277 289 314 297 447 428 411 398 388 377 368 362 353 362 357 375 371 357 345 337 328 124 323 321 317 315
248 244 233 237 246 245 266 261 252 259 238 254 260 248 258 268 273 277 280 309 299 363 431 422 406 392 383 372 365 359 350 360 352 348 372 363 350 343 336 331 331 329 326 321
236 250 247 247 259 253 252 263 246 244 259 257 251 251 268 273 284 276 288 310 280 442 423 387 384 385 380 371 364 360 349 358 352 346 350 367 354 345 341 337 335 335 332 321
245 247 249 268 254 256 260 248 247 257 257 255 247 268 279 279 278 277 305 296 356 435 396 379 394 384 377 367 365 358 352 348 349 348 358 347 363 355 350 345 342 344 332 321
250 263 265 255 258 259 250 251 256 250 254 249 265 274 285 279 274 287 306 276 458 423 390 405 400 389 377 369 363 359 356 350 344 339 344 355 338 370 362 357 347 347 330 319
263 249 255 265 255 252 249 252 248 254 261 257 264 282 284 270 275 294 292 283 449 415 390 414 406 393 384 377 368 364 360 354 349 347 340 349 358 333 354 369 356 343 328 316
254 258 266 249 256 248 246 247 249 260 258 266 274 289 279 274 280 302 278 297 444 414 387 423 411 398 390 380 372 367 362 362 354 356 351 351 371 361 337 380 359 336 320 312
266 281 247 255 249 247 251 248 255 258 264 270 285 279 277 277 286 303 280 335 441 415 386 395 399 387 362 381 376 368 367 363 364 361 366 369 382 370 349 389 350 327 314 313
267 249 258 257 253 252 248 257 258 259 266 273 280 279 276 281 296 282 284 452 438 418 388 368 382 376 366 365 367 368 367 368 368 371 363 370 368 370 385 362 329 316 311 312
247 257 253 251 250 252 255 256 265 264 268 271 283 281 275 286 297 277 294 445 437 419 387 361 383 386 379 370 367 368 368 376 368 359 406 406 384 382 367 330 314 312 310 303

GFSNGP_2pvu_pres_297.txt.gz
Presure
328 314 314 319 313 284 281 271 266 275 265 248 255 257 244 250 247 244 224 227 234 241 242 247 259 286 276 278 274 270 256 221 217 227 230 217 218 220 222 227 228 226 237 265
303 294 302 103 317 311 304 285 273 285 277 267 267 263 262 258 257 256 255 259 266 273 301 288 285 273 264 252 261 257 216 218 224 224 218 223 223 223 229 228 237 239 278 288
294 278 282 279 273 273 278 288 299 305 309 305 285 285 310 311 308 302 292 264 248 254 237 243 223 223 218 217 219 227 227 225 225 225 226 224 228 229 230 240 248 284 276 264
227 220 216 219 217 218 225 227 232 237 248 241 245 252 240 230 223 226 230 232 232 231 229 229 230 230 230 229 227 226 227 227 228 228 229 229 234 240 248 271 287 266 270 281
234 235 233 231 246 258 258 254 254 252 247 246 246 247 252 337 368 379 367 357 346 354 350 342 333 313 271 267 258 254 244 242 241 251 273 275 276 276 283 269 264 284 285 293
324 322 324 315 312 314 314 317 325 355 361 363 368 383 367 358 351 359 352 328 328 326 328 321 314 312 308 303 297 295 285 288 278 273 279 274 277 268 264 289 262 289 344 318
295 301 296 300 308 346 377 369 371 361 355 356 379 368 368 333 350 339 324 311 306 303 305 307 304 298 293 286 281 276 278 279 271 270 272 260 261 284 249 285 315 313 403 388
361 361 364 372 381 375 364 378 370 360 353 350 375 368 353 351 327 310 299 294 289 283 284 278 272 271 272 273 272 268 265 265 257 253 270 275 272 286 319 320 378 400 384 363
413 402 392 389 382 370 373 363 355 361 368 362 351 343 337 313 300 292 286 274 277 269 270 272 268 264 264 259 253 251 266 272 272 264 280 313 326 329 317 415 400 380 363 345
406 381 395 397 370 359 353 355 386 364 345 335 331 312 296 292 279 276 274 272 268 264 263 262 255 249 258 264 267 275 288 284 332 324 314 324 319 433 418 401 378 363 347 329
329 334 339 341 345 353 365 359 334 319 317 304 288 283 274 272 274 266 262 259 260 259 248 254 263 261 264 255 282 329 326 328 320 307 377 447 433 413 397 380 364 350 332 320
326 331 340 339 356 351 332 322 313 299 283 282 275 266 261 260 260 260 258 248 254 262 254 251 257 271 295 305 330 321 311 301 427 438 432 432 418 398 375 363 350 339 330 317
343 361 374 324 317 308 295 280 278 276 263 264 252 260 262 256 246 249 261 251 249 259 259 271 288 289 324 315 298 433 426 424 433 418 406 402 402 392 368 349 345 333 326 314
318 310 298 287 284 273 265 261 260 257 262 257 249 246 249 259 256 247 247 261 262 273 285 286 285 320 307 310 432 417 407 420 409 388 371 363 393 375 314 346 334 324 323 319
287 277 272 268 258 259 261 259 253 248 245 246 256 258 262 244 245 259 267 257 274 287 286 279 317 301 375 430 416 404 397 393 379 364 359 361 385 371 356 341 230 325 319 311
264 259 260 263 259 254 248 246 242 244 257 260 257 237 243 255 261 259 260 277 288 285 279 311 292 305 432 418 407 397 385 377 364 358 361 375 373 364 352 339 119 123 137 324
257 254 255 248 245 241 236 262 269 258 255 258 239 255 251 262 259 259 280 290 286 278 295 306 298 439 422 404 395 384 375 366 360 352 359 384 368 363 349 339 331 330 125 323
249 248 246 239 234 248 266 259 257 259 244 240 251 252 256 256 243 269 287 287 275 292 310 287 450 408 386 382 390 380 369 364 357 349 355 349 363 362 349 343 337 330 330 331
248 242 232 247 251 271 250 253 258 252 245 251 251 248 262 254 267 286 290 282 280 303 279 323 424 396 391 390 385 377 367 363 357 347 353 347 348 367 356 344 339 335 332 332
238 239 251 263 267 254 253 261 255 247 250 249 244 255 258 268 282 285 285 275 295 292 291 446 413 389 403 396 384 375 365 362 356 348 353 346 346 367 364 350 345 341 339 337
251 257 275 255 255 257 254 258 247 249 249 246 251 259 260 272 276 290 278 285 301 279 302 432 409 386 410 400 387 378 368 363 355 350 345 344 354 351 365 358 352 347 347 346
271 260 256 256 260 268 252 249 249 250 252 255 258 261 269 274 279 295 278 290 294 286 314 430 407 384 416 401 391 379 372 364 361 352 348 343 339 346 348 333 361 359 356 351
251 257 262 270 278 252 255 253 250 256 252 260 264 263 271 278 291 288 285 294 278 293 446 431 408 383 395 407 397 385 377 367 362 357 355 349 349 340 348 352 329 371 369 355
273 279 277 241 244 254 252 255 252 255 260 262 260 266 274 291 304 276 286 297 280 299 450 432 410 378 362 384 370 390 375 372 363 363 358 358 358 352 361 373 341 375 369 352
268 267 264 263 264 264 263 263 261 261 265 261 264 274 282 307 284 281 287 278 283 304 445 433 410 374 363 383 380 368 368 365 367 366 367 365 368 367 381 375 346 389 362 332
230 278 277 278 274 272 271 272 271 268 272 271 274 275 305 291 271 285 297 277 287 314 441 430 403 371 376 392 387 377 368 366 368 370 373 369 359 372 380 357 385 361 331 319
240 249 247 251 257 270 282 283 282 275 266 282 272 285 297 280 278 287 281 280 293 409 440 420 387 381 401 408 399 384 372 370 371 374 362 380 411 395 364 384 347 326 316 316

GFSNGP_2pvu_pres_300.txt.gz
Presure
330 288 317 312 303 296 297 290 290 285 289 282 291 294 299 305 306 307 300 277 277 274 256 251 253 244 244 246 249 252 254 258 261 274 293 288 279 268 258 244 243 251 242 230
306 299 299 294 278 276 276 273 276 270 265 261 258 230 230 232 279 287 296 305 311 311 304 302 272 269 270 273 298 306 301 283 258 257 262 227 228 229 229 229 229 230 229 230
254 247 247 241 240 232 232 231 225 229 226 220 221 225 222 229 235 232 224 224 236 248 257 263 264 260 255 246 217 219 223 226 229 231 231 230 231 232 236 236 236 235 235 238
244 243 242 234 232 228 221 219 228 235 240 246 251 257 266 273 276 271 265 259 256 249 249 247 247 306 309 363 357 363 355 347 318 299 301 294 294 295 275 265 267 269 288 282
255 302 332 321 318 281 303 314 313 309 308 311 313 312 312 312 314 370 389 378 379 368 372 351 346 339 331 331 332 328 323 324 322 311 313 314 311 308 299 302 304 305 294 285
327 326 326 314 302 301 300 295 291 286 287 292 305 374 375 367 368 381 386 381 361 358 345 329 321 313 307 303 303 301 299 298 299 298 296 295 291 284 284 283 281 280 277 277
312 319 315 321 334 331 328 336 337 350 373 372 374 374 370 380 381 370 361 345 328 316 294 288 295 290 289 287 282 279 278 276 275 273 272 271 270 269 270 269 265 272 286 286
450 442 437 404 399 390 389 389 385 371 370 370 370 365 364 349 341 337 317 307 303 297 293 280 281 276 272 271 269 265 263 263 263 263 263 265 273 281 285 281 283 290 315 329
411 402 409 411 402 397 399 406 369 361 359 363 376 353 330 326 303 297 289 290 278 275 275 271 264 263 256 258 259 257 254 254 275 277 274 274 282 290 327 329 322 318 315 303
337 342 343 346 353 356 354 351 350 364 340 323 320 308 294 289 283 281 270 269 265 262 256 252 255 254 254 257 272 272 267 264 271 299 331 324 316 312 330 328 452 434 417 398
320 324 326 335 334 338 351 359 344 318 311 296 285 280 281 274 265 263 262 256 255 251 250 258 267 265 264 267 278 302 296 308 323 312 316 439 436 439 440 438 426 412 393 373
329 341 346 350 358 333 317 306 291 283 279 274 267 259 257 260 255 249 247 257 262 260 257 259 266 261 289 302 291 292 322 303 400 434 421 413 426 426 423 419 408 392 374 358
362 317 307 294 291 286 277 272 273 260 250 259 259 250 247 249 259 262 253 250 254 262 266 249 291 300 290 285 318 306 309 440 425 411 402 416 411 398 379 392 388 373 358 346
291 281 276 267 264 261 258 260 258 256 250 247 245 252 260 256 248 246 252 261 257 258 254 295 296 285 285 320 296 432 435 419 406 394 394 394 380 365 363 364 367 357 351 340
268 266 259 256 254 254 250 247 245 247 252 262 257 262 247 239 250 254 257 257 261 272 293 291 284 284 316 292 452 435 412 401 392 382 387 374 361 360 357 388 373 351 340 227
256 259 253 248 250 244 247 239 269 256 256 266 252 240 243 257 252 251 259 261 270 283 295 284 281 311 288 459 429 397 381 387 382 378 369 364 359 357 367 377 368 352 347 304
253 251 244 242 241 232 242 273 254 255 264 257 245 248 254 249 247 252 265 266 277 278 292 281 308 284 318 432 406 390 391 388 377 371 365 360 355 353 384 358 364 347 343 334
248 247 242 230 249 260 269 252 253 267 258 246 250 252 251 246 252 264 262 274 281 301 283 301 287 294 444 420 401 401 396 386 376 366 363 354 349 351 348 352 362 346 341 333
248 238 238 249 276 262 255 256 257 263 253 253 250 256 252 254 261 269 264 276 307 288 285 305 281 309 435 414 405 407 395 384 375 365 363 353 348 350 346 346 356 354 344 339
249 251 267 264 258 257 263 277 250 253 257 257 254 256 250 262 258 260 274 314 296 276 301 285 289 421 431 410 387 408 394 384 375 366 364 355 347 347 344 344 351 360 353 343
265 260 256 260 267 275 282 249 251 255 253 259 259 257 260 267 268 274 301 297 275 287 303 279 301 453 432 404 379 375 399 390 377 369 362 356 349 343 341 351 351 355 357 350
252 267 277 286 276 256 254 258 265 269 267 268 266 270 275 269 274 274 304 288 277 300 277 284 312 447 432 402 376 374 368 389 380 374 362 360 352 349 342 337 347 347 335 362
253 240 232 247 277 278 277 272 265 263 273 279 286 278 264 280 276 295 302 277 289 294 276 295 381 443 429 402 369 363 379 369 375 370 365 361 357 356 349 347 341 344 348 329
258 253 233 236 247 250 248 251 279 290 289 282 272 267 273 275 287 309 290 285 297 272 284 305 452 441 425 395 372 373 379 376 366 362 364 360 362 358 356 359 349 352 367 335
256 249 246 251 264 262 271 286 289 281 267 268 268 276 278 284 308 291 281 293 277 275 293 315 449 432 400 386 381 383 387 380 372 364 364 365 365 364 364 368 371 383 358 367
253 245 244 258 268 274 283 279 267 262 270 277 275 283 290 313 289 279 294 286 269 282 304 405 433 412 400 398 399 404 399 387 375 367 366 368 373 373 360 368 383 359 377 370
238 253 256 263 272 281 264 252 257 260 272 281 288 305 316 280 279 292 292 269 273 296 314 441 426 417 415 413 418 414 405 390 377 372 368 375 363 361 366 381 362 379 342 322

GFSNGP_2pvu_pres_303.txt.gz
Presure
357 269 338 333 325 321 317 311 316 307 314 305 305 300 291 286 284 282 281 278 275 277 279 282 287 296 301 292 276 269 268 264 259 256 251 248 249 254 251 243 242 242 253 254
274 289 279 268 259 258 259 252 248 246 242 246 242 242 242 235 231 226 219 224 222 213 209 209 211 212 213 235 274 286 294 299 304 305 303 294 293 262 260 259 286 283 276 269
247 244 242 235 232 234 234 234 235 235 236 232 230 229 228 228 222 222 225 227 227 227 230 230 232 225 226 230 231 224 227 237 244 246 249 254 259 258 253 246 233 230 234 239
413 415 381 344 255 254 257 259 261 274 275 273 273 280 285 275 266 261 291 313 313 318 325 326 322 322 331 347 359 319 303 240 240 303 302 302 302 302 342 339 335 330 330 331
311 319 328 315 310 310 315 321 325 324 322 320 316 314 313 312 312 308 301 293 289 285 370 387 384 367 362 377 352 345 334 329 327 324 322 321 319 314 314 313 313 312 310 306
284 291 294 290 309 288 287 283 283 283 284 284 285 286 288 283 289 335 392 381 387 392 381 372 356 352 325 319 323 315 312 304 304 302 295 291 288 284 283 285 286 286 284 284
418 420 431 410 401 411 417 381 376 369 364 359 336 340 362 383 387 385 374 377 371 363 342 323 315 309 304 302 296 291 288 283 279 278 277 275 274 274 274 275 278 279 279 279
411 400 405 405 416 433 434 422 410 401 393 389 384 379 376 367 365 357 338 323 308 304 302 299 289 283 282 278 272 267 266 266 267 267 267 271 274 275 274 273 275 284 286 287
352 345 340 335 342 350 364 381 391 399 384 378 374 371 359 338 324 302 298 290 285 277 274 266 264 264 262 261 262 263 264 266 266 266 274 282 285 288 290 311 312 330 329 327
321 328 333 331 323 322 330 343 348 356 364 339 330 315 298 289 284 276 271 264 263 261 259 257 258 259 259 262 265 271 274 276 278 288 299 314 306 306 329 323 317 334 336 452
326 336 344 348 357 353 351 360 345 321 305 290 284 276 270 265 261 259 257 256 255 253 252 257 261 260 262 271 270 265 281 305 306 301 308 324 317 309 361 428 422 431 442 432
357 339 331 317 311 305 294 286 280 272 269 262 259 257 255 256 254 251 250 260 264 257 253 252 266 264 268 256 293 300 299 291 320 318 304 401 434 424 411 405 403 425 425 416
297 285 281 271 271 262 259 258 260 257 256 256 256 252 247 252 258 261 258 248 247 259 258 260 269 267 286 279 301 295 292 315 293 451 437 421 412 404 397 385 389 395 407 396
270 268 260 258 256 257 254 252 252 251 248 250 247 256 263 265 256 246 244 259 254 251 258 271 268 280 291 302 293 311 299 309 444 421 399 396 396 387 391 379 366 364 362 390
260 259 256 252 248 249 243 248 243 272 267 257 257 270 263 254 245 254 256 252 250 261 273 266 277 294 303 290 309 296 302 437 415 399 391 391 381 381 371 367 356 354 374 376
250 250 248 249 242 241 236 244 270 262 251 260 265 262 249 250 255 256 258 253 262 265 263 275 288 298 289 308 296 290 440 416 404 406 393 384 377 365 365 359 359 358 385 361
247 248 245 245 232 247 268 270 256 251 263 258 259 261 253 260 257 261 253 255 262 271 276 285 295 291 302 297 284 448 427 411 411 404 390 377 370 364 361 356 354 362 379 370
247 249 245 245 255 269 261 255 250 270 281 252 254 260 260 262 264 262 263 273 271 282 277 306 298 284 302 281 347 440 419 402 409 396 385 376 365 364 358 354 350 354 350 363
239 249 258 263 253 264 269 274 285 260 253 261 267 270 268 267 269 277 279 269 275 281 313 299 279 305 278 295 456 433 412 386 377 394 385 375 364 364 357 352 350 349 345 355
256 260 255 266 273 280 271 270 271 275 278 263 259 269 286 284 282 274 267 277 283 316 295 283 303 278 279 326 448 431 408 376 370 389 387 377 366 363 356 350 348 345 341 347
250 253 257 240 224 234 235 254 251 250 253 283 293 286 274 269 265 273 280 289 316 294 292 297 283 273 306 465 446 429 404 375 372 369 385 373 369 361 359 350 345 340 338 353
249 251 256 255 234 236 245 259 267 277 280 279 268 261 266 273 280 291 308 321 288 287 297 288 267 291 332 460 445 422 401 372 367 380 373 377 369 361 358 354 348 342 336 337
247 254 253 247 247 243 252 270 277 283 262 254 255 259 266 279 294 319 302 281 286 296 291 270 274 315 413 442 428 409 390 379 374 378 374 370 362 362 359 353 353 349 346 342
249 259 250 237 241 253 262 273 286 254 250 250 252 256 266 287 322 287 280 287 292 293 273 268 303 330 447 429 414 402 394 386 383 384 377 279 360 360 358 360 358 354 357 353
257 249 238 239 243 260 273 270 252 249 253 254 262 270 287 321 293 285 290 296 291 275 268 278 316 433 443 428 417 409 404 403 400 390 379 368 361 361 361 362 364 363 366 370
255 255 241 244 271 272 252 248 253 267 276 281 287 301 323 304 287 292 282 288 286 268 268 302 347 453 449 439 428 418 414 413 407 392 379 368 364 362 368 370 362 363 375 362
252 239 252 274 256 247 246 258 276 290 294 307 313 327 296 289 291 279 288 284 270 268 279 321 466 479 468 454 442 431 424 416 404 390 375 369 366 371 361 358 358 376 366 367

GFSNGP_2pvu_pres_306.txt.gz
Presure
249 248 247 244 235 236 237 242 255 242 244 243 256 270 265 277 268 262 259 270 278 293 289 291 282 278 276 277 276 276 280 289 301 308 310 307 299 289 282 276 271 267 267 266
239 236 233 237 236 407 405 348 325 296 249 241 238 233 234 233 233 233 236 237 234 235 234 235 233 230 227 222 216 247 243 233 222 217 215 216 218 220 282 287 294 283 274 272
241 241 264 321 307 306 319 385 381 376 326 276 262 257 252 251 249 248 250 247 243 235 229 225 224 225 230 224 221 222 222 223 223 222 222 224 227 227 226 228 230 229 261 269
297 321 305 289 284 281 282 282 289 311 325 334 347 349 306 300 271 273 273 273 272 270 269 270 277 290 295 300 298 320 320 318 314 320 320 318 337 319 325 289 263 253 248 241
313 434 446 440 413 379 333 320 307 295 285 283 284 289 309 313 314 319 320 319 317 313 309 308 305 300 295 292 370 384 374 369 377 358 346 342 337 331 330 325 326 326 328 326
444 443 453 435 416 406 406 411 388 380 374 371 362 320 305 296 291 285 282 279 281 283 295 393 388 386 374 380 367 354 339 331 324 320 315 314 308 301 302 301 301 299 297 296
400 408 407 410 409 408 416 418 413 408 418 409 389 384 380 380 376 371 375 389 388 381 369 363 358 339 324 316 311 302 294 292 289 287 288 288 288 288 287 288 286 287 288 287
348 342 337 338 335 339 342 350 369 391 400 407 404 402 394 384 374 368 364 354 341 327 315 307 298 291 286 280 278 277 277 277 275 275 275 277 277 278 278 279 278 279 278 278
326 332 332 320 320 326 321 328 343 354 361 365 363 362 359 351 344 333 315 301 291 284 277 276 273 268 266 266 268 268 266 266 266 267 267 268 271 276 280 283 286 299 315 318
335 332 338 346 353 346 339 346 352 358 341 334 327 313 300 293 285 277 273 269 262 262 262 261 261 261 261 261 259 258 258 269 271 273 278 291 307 312 311 308 304 311 331 327
346 352 348 345 354 355 351 319 299 289 284 278 272 270 268 263 259 261 260 256 257 261 259 259 260 256 251 254 259 267 274 272 280 291 299 314 312 302 316 322 303 308 436 426
310 299 288 282 276 274 272 268 268 266 261 261 261 259 260 258 255 255 259 261 262 257 251 243 255 259 258 257 273 276 275 284 311 317 307 298 321 303 300 415 425 416 413 406
276 268 267 262 260 260 258 255 252 250 249 251 250 257 257 259 261 265 267 256 250 247 260 258 255 251 265 272 270 281 288 308 309 292 318 302 293 433 421 404 395 396 398 390
259 258 257 251 252 250 248 253 247 245 272 268 260 256 257 273 266 260 259 252 257 253 262 261 253 264 275 280 282 308 305 300 300 312 283 379 420 414 401 392 388 378 386 379
260 258 257 252 249 243 245 238 276 269 262 254 252 264 261 256 260 255 256 262 262 264 264 267 274 277 274 282 308 306 294 308 296 281 442 420 416 408 398 393 379 375 367 368
251 249 250 244 247 242 260 272 265 252 256 257 276 273 257 258 259 261 263 271 275 273 280 284 275 278 284 315 304 294 307 280 284 446 428 418 412 405 393 380 376 365 361 357
246 243 247 254 250 270 259 257 267 277 285 271 257 258 266 271 268 265 275 282 285 284 275 277 285 317 305 291 303 298 275 290 456 435 413 405 408 395 387 377 366 365 357 352
242 246 254 264 257 269 275 270 270 270 273 275 270 255 251 273 291 291 275 266 273 282 289 318 314 292 285 301 288 273 290 462 447 424 400 396 403 391 380 373 367 360 353 351
247 255 252 254 267 265 249 228 232 240 258 267 281 282 279 274 259 263 264 269 286 325 314 289 280 292 303 284 270 286 428 456 438 415 391 377 372 390 377 367 365 358 351 350
257 249 248 253 251 255 225 237 248 248 264 283 281 269 257 252 253 258 265 274 328 296 279 289 292 294 285 269 279 340 467 451 430 410 385 363 369 384 376 368 363 358 351 348
264 244 249 251 249 247 249 244 243 258 278 285 262 249 251 256 260 267 280 307 312 288 289 292 292 295 272 277 304 450 449 439 425 403 380 366 378 376 375 372 359 359 350 347
243 243 246 253 258 246 239 244 252 278 267 252 249 255 267 278 288 304 323 311 287 293 285 294 286 278 275 286 436 448 428 417 413 397 383 373 372 371 373 366 361 359 355 348
244 247 250 257 247 241 240 264 267 253 250 262 287 295 298 313 319 324 295 289 291 279 292 292 278 268 277 336 457 449 433 418 405 396 387 379 377 214 365 360 361 359 355 355
244 245 251 258 254 240 269 263 251 247 249 253 304 324 329 324 295 291 292 281 276 289 290 280 275 280 292 462 471 455 438 422 409 399 396 391 384 376 365 360 358 357 361 358
240 248 251 252 254 270 270 249 246 246 252 251 261 304 295 291 290 292 272 272 282 278 280 289 285 281 370 493 478 460 444 428 414 407 404 397 384 376 365 361 362 365 364 364
251 246 245 239 243 273 259 241 245 249 251 259 259 297 294 293 301 271 273 272 283 277 284 285 290 290 535 514 491 470 450 436 423 414 407 395 382 370 366 365 370 372 363 363
246 242 242 241 269 277 248 246 248 249 251 260 266 298 304 298 283 264 269 275 290 283 282 295 294 508 544 517 493 469 449 434 423 413 399 388 376 369 371 370 357 362 375 364